Weather History for Olney-Noble, IL

Change the Weather History Date:

Sunday, February 2, 2014

  Actual Average (KEVV) Record (KEVV)
Temperature  
Mean Temperature 26 °F 34 °F  
Max Temperature 32 °F 43 °F 63 °F (1911)
Min Temperature 21 °F 25 °F -23 °F (1951)
Degree Days  
Heating Degree Days 38 31  
Month to date heating degree days 63  
Since 1 July heating degree days 2842  
Cooling Degree Days 0 0  
Month to date cooling degree days 0  
Year to date cooling degree days 0  
Moisture  
Dew Point 23 °F    
Average Humidity 85    
Maximum Humidity 93    
Minimum Humidity 74    
Precipitation  
Precipitation 0.01 in 0.12 in 1.73 in (1989)
Month to date precipitation 0.24  
Year to date precipitation 3.34  
Snow  
Snow 0.00 in 0.20 in 2.70 in (1961)
Month to date snowfall 0.3  
Since 1 July snowfall 7.2  
Snow Depth -    
Sea Level Pressure  
Sea Level Pressure 30.20 in    
Wind  
Wind Speed 10 mph (NNW)    
Max Wind Speed 14 mph    
Max Gust Speed 21 mph    
Visibility 8 miles    
Events Rain , Snow    
T = Trace of Precipitation, MM = Missing Value Source: NWS Daily Summary

Daily Weather History Graph

Daily Weather History Graph

Search for Another Location

Airport:

Trip Planner

Search our weather history database for the weather conditions in past years. The results will help you decide how hot, cold, wet, or windy it might be!

Date:

Astronomy

Feb. 02, 2014 Rise Set
Actual Time 6:57 AM CST 5:15 PM CST
Civil Twilight 6:29 AM CST 5:43 PM CST
Nautical Twilight 5:57 AM CST 6:15 PM CST
Astronomical Twilight 5:26 AM CST 6:46 PM CST
Moon 8:26 AM CST (2/2) 8:56 PM CST (2/2)
Length of Visible Light 11h 14m
Length of Day
10h 18m
Waxing Crescent, 11% of the Moon is Illuminated
Feb 2
Waxing Crescent
Feb 6
First Quarter
Feb 14
Full
Feb 22
Last Quarter
Mar 1
New

Hourly Weather History & Observations

Time (CST) Temp. Windchill Dew Point Humidity Pressure Visibility Wind Dir Wind Speed Gust Speed Precip Events Conditions
12:15 AM 32.0 °F 25.6 °F 30.2 °F 93% 30.04 in 3.0 mi NNW 6.9 mph - N/A Rain Light Rain
12:35 AM 32.0 °F 24.2 °F 30.2 °F 93% 30.03 in 3.0 mi North 9.2 mph - N/A Rain Light Rain
12:55 AM 32.0 °F 23.6 °F 30.2 °F 93% 30.04 in 4.0 mi NNW 10.4 mph - N/A Rain Light Rain
1:15 AM 32.0 °F 24.2 °F 30.2 °F 93% 30.05 in 4.0 mi NNW 9.2 mph - N/A Rain Light Rain
1:35 AM 32.0 °F 23.6 °F 30.2 °F 93% 30.05 in 4.0 mi NNW 10.4 mph - N/A Rain Light Rain
1:55 AM 32.0 °F 23.0 °F 30.2 °F 93% 30.06 in 3.0 mi NNW 11.5 mph - N/A Rain Light Rain
2:15 AM 32.0 °F 24.2 °F 30.2 °F 93% 30.08 in 4.0 mi NNW 9.2 mph - N/A Rain Heavy Rain
2:35 AM 32.0 °F 22.5 °F 30.2 °F 93% 30.08 in 5.0 mi NNW 12.7 mph - N/A Rain Light Rain
2:55 AM 32.0 °F 22.1 °F 30.2 °F 93% 30.08 in 4.0 mi NNW 13.8 mph - N/A Rain Light Rain
3:15 AM 30.2 °F 19.8 °F 28.4 °F 93% 30.09 in 5.0 mi NNW 13.8 mph 17.3 mph N/A Rain Light Freezing Rain
3:35 AM 30.2 °F 20.8 °F 28.4 °F 93% 30.11 in 4.0 mi NW 11.5 mph - N/A Rain Light Freezing Rain
3:55 AM 30.2 °F 20.8 °F 28.4 °F 93% 30.11 in 3.0 mi NNW 11.5 mph - N/A Snow Light Snow
4:15 AM 30.2 °F 22.6 °F 28.4 °F 93% 30.09 in 3.0 mi NNW 8.1 mph 16.1 mph N/A Snow Light Snow
4:35 AM 30.2 °F 21.3 °F 28.4 °F 93% 30.10 in 5.0 mi NNW 10.4 mph - N/A   Overcast
4:55 AM 30.2 °F 21.3 °F 26.6 °F 86% 30.11 in 7.0 mi NNW 10.4 mph - N/A   Overcast
5:15 AM 28.4 °F 19.7 °F 26.6 °F 93% 30.12 in 7.0 mi NNW 9.2 mph - N/A   Overcast
5:35 AM 28.4 °F 18.5 °F 26.6 °F 93% 30.14 in 7.0 mi NNW 11.5 mph - N/A   Overcast
5:55 AM 28.4 °F 18.0 °F 26.6 °F 93% 30.16 in 7.0 mi NNW 12.7 mph - N/A   Overcast
6:15 AM 28.4 °F 19.7 °F 26.6 °F 93% 30.15 in 7.0 mi NNW 9.2 mph - N/A   Overcast
6:35 AM 28.4 °F 18.0 °F 26.6 °F 93% 30.16 in 7.0 mi NNW 12.7 mph 17.3 mph N/A   Overcast
6:55 AM 28.4 °F 18.5 °F 26.6 °F 93% 30.18 in 7.0 mi NNW 11.5 mph - N/A   Overcast
7:15 AM 28.4 °F 18.0 °F 26.6 °F 93% 30.19 in 7.0 mi NNW 12.7 mph - N/A   Overcast
7:35 AM 28.4 °F 19.1 °F 26.6 °F 93% 30.20 in 7.0 mi NNW 10.4 mph - N/A   Mostly Cloudy
7:55 AM 28.4 °F 18.0 °F 24.8 °F 86% 30.21 in 7.0 mi NNW 12.7 mph - 0.01 in   Overcast
8:15 AM 28.4 °F 18.5 °F 24.8 °F 86% 30.20 in 7.0 mi NNW 11.5 mph - N/A   Overcast
8:35 AM 26.6 °F 16.2 °F 24.8 °F 93% 30.21 in 7.0 mi NNW 11.5 mph 16.1 mph N/A   Overcast
8:55 AM 26.6 °F 16.2 °F 23.0 °F 86% 30.23 in 10.0 mi NNW 11.5 mph 20.7 mph N/A   Overcast
9:15 AM 26.6 °F 15.2 °F 23.0 °F 86% 30.25 in 10.0 mi NNW 13.8 mph - N/A   Overcast
9:35 AM 26.6 °F 15.2 °F 23.0 °F 86% 30.27 in 10.0 mi NNW 13.8 mph - N/A   Overcast
9:55 AM 26.6 °F 16.8 °F 23.0 °F 86% 30.27 in 10.0 mi NW 10.4 mph - N/A   Overcast
10:15 AM 26.6 °F 16.2 °F 21.2 °F 80% 30.26 in 10.0 mi NNW 11.5 mph - N/A   Overcast
10:35 AM 26.6 °F 16.8 °F 21.2 °F 80% 30.25 in 10.0 mi North 10.4 mph 17.3 mph N/A   Overcast
10:55 AM 26.6 °F 16.8 °F 23.0 °F 86% 30.25 in 10.0 mi NNW 10.4 mph - N/A   Overcast
11:15 AM 26.6 °F 16.2 °F 21.2 °F 80% 30.25 in 10.0 mi NNW 11.5 mph - N/A   Overcast
11:35 AM 26.6 °F 16.8 °F 23.0 °F 86% 30.25 in 10.0 mi NNW 10.4 mph - N/A   Overcast
11:55 AM 26.6 °F 17.5 °F 23.0 °F 86% 30.26 in 10.0 mi NNW 9.2 mph - N/A   Mostly Cloudy
12:15 PM 26.6 °F 18.2 °F 23.0 °F 86% 30.23 in 10.0 mi North 8.1 mph - N/A   Mostly Cloudy
12:35 PM 26.6 °F 20.0 °F 23.0 °F 86% 30.23 in 10.0 mi North 5.8 mph - N/A   Overcast
12:55 PM 26.6 °F 17.5 °F 23.0 °F 86% 30.24 in 10.0 mi NNW 9.2 mph - N/A   Overcast
1:15 PM 26.6 °F 16.2 °F 23.0 °F 86% 30.26 in 10.0 mi NW 11.5 mph - N/A   Overcast
1:35 PM 26.6 °F 15.2 °F 23.0 °F 86% 30.28 in 10.0 mi NW 13.8 mph 17.3 mph N/A   Overcast
1:55 PM 26.6 °F 15.7 °F 21.2 °F 80% 30.26 in 7.0 mi NNW 12.7 mph - N/A   Overcast
2:15 PM 26.6 °F 16.8 °F 21.2 °F 80% 30.24 in 7.0 mi NNW 10.4 mph - N/A   Overcast
2:35 PM 26.6 °F 17.5 °F 21.2 °F 80% 30.23 in 10.0 mi North 9.2 mph - N/A   Overcast
2:55 PM 26.6 °F 15.7 °F 21.2 °F 80% 30.26 in 10.0 mi North 12.7 mph - N/A   Overcast
3:15 PM 24.8 °F 13.4 °F 21.2 °F 86% 30.26 in 10.0 mi NNW 12.7 mph - N/A   Overcast
3:35 PM 24.8 °F 14.0 °F 21.2 °F 86% 30.25 in 10.0 mi North 11.5 mph - N/A   Mostly Cloudy
3:55 PM 24.8 °F 16.1 °F 21.2 °F 86% 30.25 in 10.0 mi North 8.1 mph - N/A   Overcast
4:15 PM 24.8 °F 16.1 °F 19.4 °F 80% 30.25 in 10.0 mi North 8.1 mph - N/A   Mostly Cloudy
4:35 PM 24.8 °F 14.6 °F 21.2 °F 86% 30.26 in 10.0 mi NNW 10.4 mph - N/A   Mostly Cloudy
4:55 PM 24.8 °F 14.0 °F 19.4 °F 80% 30.26 in 10.0 mi North 11.5 mph - N/A   Overcast
5:15 PM 24.8 °F 14.6 °F 19.4 °F 80% 30.24 in 10.0 mi North 10.4 mph - N/A   Mostly Cloudy
5:35 PM 24.8 °F 14.6 °F 21.2 °F 86% 30.26 in 10.0 mi North 10.4 mph - N/A   Mostly Cloudy
5:55 PM 24.8 °F 15.3 °F 19.4 °F 80% 30.25 in 10.0 mi North 9.2 mph - N/A   Overcast
6:15 PM 24.8 °F 16.1 °F 19.4 °F 80% 30.27 in 10.0 mi North 8.1 mph - N/A   Overcast
6:35 PM 24.8 °F 16.9 °F 17.6 °F 74% 30.26 in 10.0 mi North 6.9 mph - N/A   Mostly Cloudy
6:55 PM 24.8 °F 14.6 °F 17.6 °F 74% 30.26 in 10.0 mi NNE 10.4 mph - N/A   Overcast
7:15 PM 24.8 °F 16.1 °F 17.6 °F 74% 30.28 in 10.0 mi North 8.1 mph - N/A   Overcast
7:35 PM 24.8 °F 15.3 °F 17.6 °F 74% 30.26 in 10.0 mi North 9.2 mph - N/A   Overcast
7:55 PM 23.0 °F 15.8 °F 17.6 °F 80% 30.25 in 10.0 mi North 5.8 mph - N/A   Overcast
8:15 PM 23.0 °F 12.4 °F 17.6 °F 80% 30.25 in 10.0 mi North 10.4 mph - N/A   Overcast
8:35 PM 23.0 °F 11.1 °F 17.6 °F 80% 30.24 in 10.0 mi North 12.7 mph 17.3 mph N/A   Overcast
8:55 PM 23.0 °F 13.9 °F 17.6 °F 80% 30.26 in 10.0 mi North 8.1 mph - N/A   Overcast
9:15 PM 23.0 °F 13.9 °F 17.6 °F 80% 30.27 in 10.0 mi North 8.1 mph - N/A   Overcast
9:35 PM 23.0 °F 13.9 °F 17.6 °F 80% 30.28 in 10.0 mi North 8.1 mph - N/A   Overcast
9:55 PM 23.0 °F 13.9 °F 17.6 °F 80% 30.25 in 10.0 mi North 8.1 mph - N/A   Overcast
10:15 PM 21.2 °F 10.9 °F 15.8 °F 80% 30.24 in 10.0 mi North 9.2 mph - N/A   Overcast
10:35 PM 21.2 °F 9.5 °F 15.8 °F 80% 30.23 in 10.0 mi North 11.5 mph - N/A   Overcast
10:55 PM 21.2 °F 10.1 °F 15.8 °F 80% 30.25 in 10.0 mi North 10.4 mph - N/A   Overcast
11:15 PM 21.2 °F 9.5 °F 15.8 °F 80% 30.26 in 10.0 mi NNW 11.5 mph - N/A   Overcast
11:35 PM 21.2 °F 11.7 °F 15.8 °F 80% 30.27 in 10.0 mi North 8.1 mph - N/A   Overcast
11:55 PM 21.2 °F 10.1 °F 15.8 °F 80% 30.25 in 10.0 mi North 10.4 mph - N/A   Overcast